Location: Arbon
(43.0005°N, 0.7472°E)
Time: 10:49:01
(UTC+00:00)

SR - Pass Details

Date: 28 November 2020
Orbit: 575 x 880 km, 66.7° (Epoch: 21 January)

Event Time Altitude Azimuth Distance (km) Brightness Sun altitude
Rises 20:23:08 0° 272° (W) 2,855 ? -43.0°
Enters shadow 20:25:08 - 287° (WNW) 2,330 ? -43.4°
Reaches altitude 10° 20:27:04 10° 308° (NW) 2,015 - -43.7°
Maximum altitude 20:28:26 11° 326° (NW) 1,961 - -44.0°
Drops below altitude 10° 20:29:51 10° 344° (NNW) 2,067 - -44.2°
Sets 20:34:05 0° 19° (NNE) 3,072 - -45.0°
